K4GZX-11 Weather Reports


Display with metric or nautical units.
time (UTC)temp
F
wind
direction
speed
MPH
gust
MPH
rain 1hr
in
rain 24hr
in
rain mn
in
humidity
%
barometer
mb
20260509011856 65 172 0.0 0.0 0.00 0.00 0.00 76 1014.7
20260509011356 65 172 0.0 0.0 0.00 0.00 0.00 76 1014.6
20260509010856 65 172 0.0 0.0 0.00 0.00 0.00 75 1014.6
20260509010356 65 172 0.0 0.0 0.00 0.00 0.00 75 1014.5
20260509005856 65 172 0.0 0.0 0.00 0.00 0.00 75 1014.3
20260509005358 65 172 0.0 0.0 0.00 0.00 0.00 74 1014.2
20260509004905 66 172 0.0 0.0 0.00 0.00 0.00 74 1014.4
20260509004413 66 172 0.0 0.0 0.00 0.00 0.00 74 1014.3
20260509003908 66 172 0.0 0.0 0.00 0.00 0.00 74 1014.3
20260509003401 66 172 0.0 0.0 0.00 0.00 0.00 74 1014.2
20260509002908 66 172 0.0 0.0 0.00 0.00 0.00 75 1014.1
20260509002356 67 172 0.0 0.0 0.00 0.00 0.00 75 1014.2
20260509001856 67 172 0.0 0.0 0.00 0.00 0.00 75 1014.3
20260509001356 67 172 0.0 0.0 0.00 0.00 0.00 74 1014.3
20260509000856 67 172 0.0 0.0 0.00 0.00 0.00 74 1014.4
20260509000356 67 172 0.0 0.0 0.00 0.00 0.00 74 1014.5
20260508235856 67 172 0.0 0.0 0.00 0.00 0.00 73 1014.3
20260508235356 67 172 0.0 0.0 0.00 0.00 0.00 72 1014.4
20260508234856 68 172 0.0 0.0 0.00 0.00 0.00 72 1014.4
20260508234356 68 172 0.0 0.0 0.00 0.00 0.00 72 1014.3
20260508233856 68 172 0.0 0.0 0.00 0.00 0.00 72 1014.1
20260508233356 68 172 0.0 0.0 0.00 0.00 0.00 72 1014.1
20260508232856 68 172 0.0 0.0 0.00 0.00 0.00 71 1014.0
20260508232356 68 172 0.0 0.0 0.00 0.00 0.00 72 1013.9
20260508231856 68 172 0.0 0.0 0.00 0.00 0.00 69 1014.0
20260508231356 68 172 0.0 0.0 0.00 0.00 0.00 68 1014.0
20260508230856 68 172 0.0 0.0 0.00 0.00 0.00 68 1014.0
20260508230356 69 172 0.0 0.0 0.00 0.00 0.00 68 1014.1
20260508225856 69 172 0.0 0.0 0.00 0.00 0.00 68 1014.0
20260508225356 69 172 0.0 0.0 0.00 0.00 0.00 67 1014.2
20260508224856 69 172 0.0 0.0 0.00 0.00 0.00 67 1014.2
20260508224356 69 172 0.0 0.0 0.00 0.00 0.00 68 1014.2
20260508223856 69 172 0.0 0.0 0.00 0.00 0.00 68 1014.1
20260508223356 69 172 0.0 0.0 0.00 0.00 0.00 67 1014.0
20260508222856 69 172 0.0 0.0 0.00 0.00 0.00 67 1014.2
20260508222356 69 172 0.0 0.0 0.00 0.00 0.00 65 1014.3
20260508221856 69 172 0.0 0.0 0.00 0.00 0.00 65 1014.2
20260508221356 69 172 0.0 0.0 0.00 0.00 0.00 63 1014.2
20260508220856 69 172 0.0 0.0 0.00 0.00 0.00 62 1014.1
20260508220401 69 172 0.0 0.0 0.00 0.00 0.00 62 1014.2
20260508215908 70 172 0.0 0.0 0.00 0.00 0.00 61 1014.3
20260508215401 70 172 0.0 0.0 0.00 0.00 0.00 61 1014.2
20260508214908 70 172 0.0 0.0 0.00 0.00 0.00 59 1014.2
20260508214356 70 172 0.0 0.0 0.00 0.00 0.00 58 1013.9
20260508213856 70 172 0.0 0.0 0.00 0.00 0.00 57 1014.1
20260508213356 70 172 0.0 0.0 0.00 0.00 0.00 58 1014.2
20260508212856 70 172 0.0 0.0 0.00 0.00 0.00 57 1014.1
20260508212356 70 172 0.0 0.0 0.00 0.00 0.00 58 1014.1
20260508211856 70 172 0.0 0.0 0.00 0.00 0.00 57 1014.1
20260508211356 70 172 0.0 0.0 0.00 0.00 0.00 56 1014.2
20260508210856 70 172 0.0 0.0 0.00 0.00 0.00 56 1014.3
20260508210356 71 172 0.0 0.0 0.00 0.00 0.00 56 1014.3
20260508205856 71 172 0.0 0.0 0.00 0.00 0.00 57 1014.1
20260508205356 71 172 0.0 0.0 0.00 0.00 0.00 54 1014.3
20260508204856 71 172 0.0 0.0 0.00 0.00 0.00 55 1014.4
20260508204356 71 172 0.0 0.0 0.00 0.00 0.00 56 1014.4
20260508203856 71 172 0.0 0.0 0.00 0.00 0.00 55 1014.4
20260508203401 71 172 0.0 0.0 0.00 0.00 0.00 54 1014.3
20260508202908 72 172 0.0 0.0 0.00 0.00 0.00 53 1014.4
20260508202356 72 172 0.0 0.0 0.00 0.00 0.00 55 1014.3
20260508201856 72 172 0.0 0.0 0.00 0.00 0.00 54 1014.3
20260508201356 72 172 0.0 0.0 0.00 0.00 0.00 54 1014.4
20260508200856 72 172 0.0 0.0 0.00 0.00 0.00 52 1014.6
20260508200401 72 172 0.0 0.0 0.00 0.00 0.00 53 1014.6
20260508195908 73 172 0.0 0.0 0.00 0.00 0.00 54 1014.7
20260508195356 73 172 0.0 0.0 0.00 0.00 0.00 52 1014.9
20260508194856 73 172 0.0 0.0 0.00 0.00 0.00 48 1014.8
20260508194356 73 172 0.0 0.0 0.00 0.00 0.00 51 1015.0
20260508193904 74 172 0.0 0.0 0.00 0.00 0.00 48 1014.8
20260508193411 74 172 0.0 0.0 0.00 0.00 0.00 49 1014.9
20260508192919 74 172 0.0 0.0 0.00 0.00 0.00 48 1015.2
20260508192414 75 172 0.0 0.0 0.00 0.00 0.00 48 1015.3
20260508191910 75 172 0.0 0.0 0.00 0.00 0.00 47 1015.5
20260508191417 75 172 0.0 0.0 0.00 0.00 0.00 44 1015.5
20260508190925 75 172 0.0 0.0 0.00 0.00 0.00 50 1015.5
20260508190408 75 172 0.0 0.0 0.00 0.00 0.00 45 1015.3
20260508185856 75 172 0.0 0.0 0.00 0.00 0.00 47 1015.4
20260508185356 75 172 0.0 0.0 0.00 0.00 0.00 48 1015.5
20260508184856 75 172 0.0 0.0 0.00 0.00 0.00 49 1015.6
20260508184356 75 172 0.0 0.0 0.00 0.00 0.00 44 1015.8
20260508183856 75 172 0.0 0.0 0.00 0.00 0.00 48 1015.7
20260508183356 76 172 0.0 0.0 0.00 0.00 0.00 46 1015.8
20260508182856 75 172 0.0 0.0 0.00 0.00 0.00 49 1015.9
20260508182356 75 172 0.0 0.0 0.00 0.00 0.00 45 1016.0
20260508181856 76 172 0.0 0.0 0.00 0.00 0.00 47 1016.0
20260508181356 75 172 0.0 0.0 0.00 0.00 0.00 49 1016.1
20260508180900 75 172 0.0 0.0 0.00 0.00 0.00 45 1016.0
20260508180408 76 172 0.0 0.0 0.00 0.00 0.00 48 1016.4
20260508175856 76 172 0.0 0.0 0.00 0.00 0.00 45 1016.3
20260508175356 76 172 0.0 0.0 0.00 0.00 0.00 47 1016.3
20260508174856 75 172 0.0 0.0 0.00 0.00 0.00 49 1016.6
20260508174356 74 172 0.0 0.0 0.00 0.00 0.00 51 1016.6
20260508173856 74 172 0.0 0.0 0.00 0.00 0.00 49 1016.4
20260508173356 74 172 0.0 0.0 0.00 0.00 0.00 48 1016.6
20260508172856 75 172 0.0 0.0 0.00 0.00 0.00 52 1016.5
20260508172356 74 172 0.0 0.0 0.00 0.00 0.00 50 1016.6
20260508171856 74 172 0.0 0.0 0.00 0.00 0.00 52 1016.7
20260508171356 73 172 0.0 0.0 0.00 0.00 0.00 55 1016.8
20260508170856 74 172 0.0 0.0 0.00 0.00 0.00 50 1016.9
20260508170356 74 172 0.0 0.0 0.00 0.00 0.00 53 1017.0
20260508165856 74 172 0.0 0.0 0.00 0.00 0.00 52 1017.0
20260508165400 74 172 0.0 0.0 0.00 0.00 0.00 53 1017.0
20260508164908 74 172 0.0 0.0 0.00 0.00 0.00 54 1017.3
20260508164356 73 172 0.0 0.0 0.00 0.00 0.00 54 1017.3
20260508163902 72 172 0.0 0.0 0.00 0.00 0.00 53 1017.3
20260508163410 71 172 0.0 0.0 0.00 0.00 0.00 56 1017.4
20260508162917 71 172 0.0 0.0 0.00 0.00 0.00 57 1017.5
20260508162425 70 172 0.0 0.0 0.00 0.00 0.00 57 1017.6
20260508161932 70 172 0.0 0.0 0.00 0.00 0.00 56 1017.6
20260508161401 69 172 0.0 0.0 0.00 0.00 0.00 59 1017.7
20260508160908 69 172 0.0 0.0 0.00 0.00 0.00 57 1017.9
20260508160356 69 172 0.0 0.0 0.00 0.00 0.00 61 1017.9
20260508155856 68 172 0.0 0.0 0.00 0.00 0.00 59 1017.9
20260508155356 68 172 0.0 0.0 0.00 0.00 0.00 61 1018.0
20260508154856 67 172 0.0 0.0 0.00 0.01 0.00 61 1018.1
20260508154356 67 172 0.0 0.0 0.00 0.01 0.00 64 1018.1
20260508153856 66 172 0.0 0.0 0.00 0.02 0.00 67 1018.2
20260508153356 66 172 0.0 0.0 0.00 0.02 0.00 67 1018.0
20260508152856 65 172 0.0 0.0 0.00 0.03 0.00 70 1018.2
20260508152356 65 172 0.0 0.0 0.00 0.04 0.00 71 1018.4
20260508151856 65 172 0.0 0.0 0.00 0.04 0.00 72 1018.4
20260508151356 64 172 0.0 0.0 0.00 0.05 0.00 72 1018.4
20260508150856 64 172 0.0 0.0 0.00 0.06 0.00 73 1018.4
20260508150356 63 172 0.0 0.0 0.00 0.07 0.00 73 1018.3
20260508145856 63 172 0.0 0.0 0.00 0.09 0.00 76 1018.3
20260508145356 62 172 0.0 0.0 0.00 0.10 0.00 77 1018.2
20260508144856 62 172 0.0 0.0 0.00 0.11 0.00 79 1018.2
20260508144356 62 172 0.0 0.0 0.00 0.12 0.00 79 1018.2
20260508143856 61 172 0.0 0.0 0.00 0.14 0.00 81 1018.2
20260508143356 61 172 0.0 0.0 0.00 0.15 0.00 81 1018.1
20260508142856 61 172 0.0 0.0 0.00 0.17 0.00 81 1018.1
20260508142356 60 172 0.0 0.0 0.00 0.18 0.00 83 1018.1
20260508141856 60 172 0.0 0.0 0.00 0.20 0.00 84 1018.1
20260508141356 60 172 0.0 0.0 0.00 0.21 0.00 85 1018.2
20260508140856 59 172 0.0 0.0 0.00 0.22 0.00 85 1018.3
20260508140400 59 172 0.0 0.0 0.00 0.23 0.00 86 1018.4
20260508135908 59 172 0.0 0.0 0.00 0.25 0.00 86 1018.6
20260508135356 58 172 0.0 0.0 0.00 0.26 0.00 87 1018.6
20260508134856 58 172 0.0 0.0 0.00 0.28 0.00 87 1018.7
20260508134356 57 172 0.0 0.0 0.00 0.29 0.00 87 1018.6
20260508133856 57 172 0.0 0.0 0.00 0.31 0.00 88 1018.6
20260508133356 56 172 0.0 0.0 0.00 0.33 0.00 88 1018.6
20260508132856 56 172 0.0 0.0 0.00 0.35 0.00 88 1018.5
20260508132356 55 172 0.0 0.0 0.00 0.36 0.00 88 1018.5
20260508131856 55 172 0.0 0.0 0.00 0.38 0.00 88 1018.5
20260508131141 55 172 0.0 0.0 0.00 0.40 0.00 88 1018.3
20260508130641 55 172 0.0 0.0 0.00 0.42 0.00 88 1018.4
20260508130141 54 172 0.0 0.0 0.00 0.43 0.00 88 1018.4
20260508125641 54 172 0.0 0.0 0.00 0.45 0.00 88 1018.4
20260508125141 53 172 0.0 0.0 0.00 0.47 0.00 88 1018.4
20260508124641 53 172 0.0 0.0 0.00 0.48 0.00 88 1018.2
20260508124141 53 172 0.0 0.0 0.00 0.49 0.00 88 1018.1
20260508123641 52 172 0.0 0.0 0.00 0.50 0.00 88 1018.0
20260508123141 52 172 0.0 0.0 0.00 0.51 0.00 87 1018.0
20260508122641 52 172 0.0 0.0 0.00 0.52 0.00 87 1017.9
20260508122146 51 172 0.0 0.0 0.00 0.53 0.00 87 1017.8
20260508121653 51 172 0.0 0.0 0.00 0.54 0.00 87 1017.7
20260508121141 51 172 0.0 0.0 0.00 0.54 0.00 87 1017.7
20260508120641 51 172 0.0 0.0 0.00 0.55 0.00 87 1017.6
20260508120141 50 172 0.0 0.0 0.00 0.56 0.00 87 1017.6
20260508115641 50 172 0.0 0.0 0.00 0.57 0.00 87 1017.5
20260508115141 50 172 0.0 0.0 0.00 0.59 0.00 87 1017.4
20260508114645 50 172 0.0 0.0 0.00 0.59 0.00 86 1017.4
20260508114153 50 172 0.0 0.0 0.00 0.61 0.00 86 1017.2
20260508113641 50 172 0.0 0.0 0.00 0.62 0.00 86 1017.3
20260508113141 50 172 0.0 0.0 0.00 0.63 0.00 86 1017.2
20260508112641 50 172 0.0 0.0 0.00 0.65 0.00 86 1017.2
20260508112141 50 172 0.0 0.0 0.00 0.66 0.00 86 1017.2
20260508111641 50 172 0.0 0.0 0.00 0.67 0.00 86 1017.1
20260508111141 50 172 0.0 0.0 0.00 0.68 0.00 86 1017.0
20260508110641 50 172 0.0 0.0 0.00 0.69 0.00 86 1016.9
20260508110141 50 172 0.0 0.0 0.00 0.70 0.00 86 1016.7
20260508105641 50 172 0.0 0.0 0.00 0.71 0.00 86 1016.5
20260508105141 50 172 0.0 0.0 0.00 0.73 0.00 85 1016.4
20260508104641 50 172 0.0 0.0 0.00 0.73 0.00 85 1016.1
20260508104141 50 172 0.0 0.0 0.00 0.74 0.00 85 1016.0
20260508103641 50 172 0.0 0.0 0.00 0.74 0.00 85 1016.0
20260508103141 50 172 0.0 0.0 0.00 0.75 0.00 85 1016.0
20260508102641 50 172 0.0 0.0 0.00 0.75 0.00 85 1016.0
20260508102141 50 172 0.0 0.0 0.00 0.76 0.00 85 1015.9
20260508101641 51 172 0.0 0.0 0.00 0.76 0.00 85 1016.0
20260508101141 51 172 0.0 0.0 0.00 0.77 0.00 85 1015.9
20260508100641 51 172 0.0 0.0 0.00 0.77 0.00 85 1015.8
20260508100141 51 172 0.0 0.0 0.00 0.77 0.00 85 1015.7
20260508095645 51 172 0.0 0.0 0.00 0.77 0.00 85 1015.8
20260508095153 51 172 0.0 0.0 0.00 0.77 0.00 85 1015.7
20260508094641 51 172 0.0 0.0 0.00 0.77 0.00 85 1015.7
20260508094141 51 172 0.0 0.0 0.00 0.77 0.00 85 1015.4
20260508093641 51 172 0.0 0.0 0.00 0.77 0.00 84 1015.3
20260508093141 51 172 0.0 0.0 0.00 0.77 0.00 85 1015.3
20260508092641 51 172 0.0 0.0 0.00 0.77 0.00 85 1015.3
20260508092141 51 172 0.0 0.0 0.00 0.77 0.00 85 1015.4
20260508091645 51 172 0.0 0.0 0.00 0.77 0.00 84 1015.2
20260508091153 51 172 0.0 0.0 0.00 0.77 0.00 84 1015.2
20260508090645 51 172 0.0 0.0 0.00 0.77 0.00 84 1015.2
20260508090153 51 172 0.0 0.0 0.00 0.77 0.00 84 1015.2
20260508085641 52 172 0.0 0.0 0.00 0.78 0.00 84 1015.0
20260508085145 52 172 0.0 0.0 0.00 0.78 0.00 85 1015.0
20260508084653 52 172 0.0 0.0 0.00 0.79 0.00 85 1014.8
20260508084146 52 172 0.0 0.0 0.00 0.80 0.00 85 1014.8
20260508083653 52 172 0.0 0.0 0.00 0.81 0.00 85 1014.8
20260508083141 52 172 0.0 0.0 0.00 0.82 0.00 85 1014.7
20260508082641 52 172 0.0 0.0 0.00 0.82 0.00 85 1014.8
20260508082141 52 172 0.0 0.0 0.00 0.82 0.00 84 1014.8
20260508081645 52 172 0.0 0.0 0.00 0.82 0.00 84 1014.7
20260508081153 52 172 0.0 0.0 0.00 0.82 0.00 84 1014.7
20260508080641 52 172 0.0 0.0 0.00 0.82 0.00 84 1014.7
20260508080141 52 172 0.0 0.0 0.00 0.82 0.00 84 1014.8
20260508075641 53 172 0.0 0.0 0.00 0.82 0.00 84 1014.9
20260508075141 53 172 0.0 0.0 0.00 0.82 0.00 84 1014.8
20260508074641 53 172 0.0 0.0 0.00 0.82 0.00 84 1015.0
20260508074141 53 172 0.0 0.0 0.00 0.82 0.00 83 1014.8
20260508073641 53 172 0.0 0.0 0.00 0.82 0.00 83 1014.8
20260508073145 53 172 0.0 0.0 0.00 0.82 0.00 83 1014.8
20260508072653 53 172 0.0 0.0 0.00 0.82 0.00 83 1014.7
20260508072141 53 172 0.0 0.0 0.00 0.82 0.00 83 1014.7
20260508071641 53 172 0.0 0.0 0.00 0.83 0.00 83 1014.7
20260508071141 54 172 0.0 0.0 0.00 0.83 0.00 82 1014.8
20260508070641 54 172 0.0 0.0 0.00 0.84 0.00 82 1014.8
20260508070142 54 172 0.0 0.0 0.00 0.85 0.00 82 1014.7
20260508065650 54 172 0.0 0.0 0.00 0.86 0.00 82 1014.7
20260508065157 54 172 0.0 0.0 0.00 0.87 0.00 82 1014.7
20260508064653 54 172 0.0 0.0 0.00 0.89 0.00 82 1014.7
20260508063816 55 172 0.0 0.0 0.00 0.92 0.00 83 1014.7
20260508063252 55 172 0.0 0.0 0.00 0.93 0.00 83 1014.8
20260508062752 55 172 0.0 0.0 0.00 0.95 0.00 82 1014.8
20260508062252 55 172 0.0 0.0 0.00 0.97 0.00 82 1014.8
20260508061756 55 172 0.0 0.0 0.00 0.98 0.00 82 1014.7
20260508061304 55 172 0.0 0.0 0.00 1.00 0.00 82 1014.7
20260508060752 55 172 0.0 0.0 0.00 1.02 0.00 83 1014.7
20260508060252 55 172 0.0 0.0 0.00 1.04 0.00 83 1014.8
20260508055752 55 172 0.0 0.0 0.00 1.05 0.00 83 1014.8
20260508055252 55 172 0.0 0.0 0.00 1.07 0.00 82 1014.9
20260508054707 56 172 0.0 0.0 0.00 1.08 0.00 82 1014.9
20260508054207 56 172 0.0 0.0 0.00 1.09 0.00 82 1014.9
20260508053707 56 172 0.0 0.0 0.00 1.10 0.00 82 1014.9
20260508053207 56 172 0.0 0.0 0.00 1.11 0.00 82 1014.8
20260508052707 56 172 0.0 0.0 0.00 1.12 0.00 82 1014.8
20260508052207 56 172 0.0 0.0 0.00 1.13 0.00 81 1014.7
20260508051707 56 172 0.0 0.0 0.00 1.13 0.00 81 1014.8
20260508051207 56 172 0.0 0.0 0.00 1.14 0.00 81 1014.7
20260508050707 57 172 0.0 0.0 0.00 1.14 0.00 80 1014.7
20260508050212 57 172 0.0 0.0 0.00 1.14 0.00 79 1014.8
20260508045719 57 172 0.0 0.0 0.00 1.14 0.00 79 1014.8
20260508045207 57 172 0.0 0.0 0.00 1.14 0.00 78 1015.0
20260508044707 57 172 0.0 0.0 0.00 1.14 0.00 78 1014.8
20260508044207 58 172 0.0 0.0 0.00 1.14 0.00 78 1014.7
20260508043707 58 172 0.0 0.0 0.00 1.15 0.00 78 1014.8
20260508043207 58 172 0.0 0.0 0.00 1.15 0.00 78 1014.7
20260508042707 58 172 0.0 0.0 0.00 1.16 0.00 77 1014.8
20260508042207 58 172 0.0 0.0 0.00 1.17 0.00 77 1014.7
20260508041707 58 172 0.0 0.0 0.00 1.17 0.00 78 1014.6
20260508041207 58 172 0.0 0.0 0.00 1.18 0.00 78 1014.7
20260508040707 58 172 0.0 0.0 0.00 1.18 0.00 77 1014.6
20260508040207 59 172 0.0 0.0 0.00 1.18 0.00 77 1014.5
20260508035707 59 172 0.0 0.0 0.00 1.18 0.00 77 1014.5
20260508035207 59 172 0.0 0.0 0.00 1.18 0.00 77 1014.5
20260508034707 59 172 0.0 0.0 0.00 1.19 0.00 77 1014.5
20260508034207 59 172 0.0 0.0 0.00 1.21 0.00 76 1014.5
20260508033714 60 172 0.0 0.0 0.00 1.22 0.00 76 1014.5
20260508033221 60 172 0.0 0.0 0.00 1.23 0.00 76 1014.4
20260508032724 60 172 0.0 0.0 0.00 1.25 0.00 76 1014.6
20260508032231 60 172 0.0 0.0 0.00 1.27 0.00 76 1014.4
20260508031711 60 172 0.0 0.0 0.00 1.28 0.00 76 1014.5
20260508031219 60 172 0.0 0.0 0.00 1.30 0.00 76 1014.5
20260508030707 60 172 0.0 0.0 0.00 1.32 0.00 75 1014.4
20260508030207 60 172 0.0 0.0 0.00 1.34 0.00 75 1014.4
20260508025707 61 172 0.0 0.0 0.00 1.36 0.00 75 1014.4
20260508025207 61 172 0.0 0.0 0.00 1.39 0.00 75 1014.4
20260508024707 61 172 0.0 0.0 0.00 1.41 0.00 74 1014.2
20260508024212 61 172 0.0 0.0 0.00 1.44 0.00 74 1014.3
20260508023719 61 172 0.0 0.0 0.00 1.46 0.00 75 1014.2
20260508023207 61 172 0.0 0.0 0.00 1.49 0.00 74 1014.0
20260508022713 62 172 0.0 0.0 0.00 1.51 0.00 74 1013.9
20260508022221 62 172 0.0 0.0 0.00 1.54 0.00 73 1014.0
20260508021728 62 172 0.0 0.0 0.00 1.57 0.00 72 1013.9
20260508021236 62 172 0.0 0.0 0.00 1.60 0.00 73 1013.7
20260508020731 62 172 0.0 0.0 0.00 1.62 0.00 72 1013.8
20260508020207 63 172 0.0 0.0 0.00 1.65 0.00 72 1013.7
20260508015707 63 172 0.0 0.0 0.00 1.68 0.00 72 1013.7
20260508015207 63 172 0.0 0.0 0.00 1.70 0.00 71 1013.6
20260508014707 63 172 0.0 0.0 0.00 1.72 0.00 70 1013.6
20260508014207 63 172 0.0 0.0 0.00 1.75 0.00 70 1013.6
20260508013708 64 172 0.0 0.0 0.00 1.77 0.00 70 1013.6
20260508013216 64 172 0.0 0.0 0.00 1.79 0.00 73 1013.4
20260508012723 64 172 0.0 0.0 0.00 1.81 0.00 71 1013.2
20260508012219 64 172 0.0 0.0 0.00 1.83 0.00 70 1013.2